EW1423 Weather Reports


time (UTC)temp
C
wind
direction
speed
KPH
gust
KPH
rain 1hr
cm
rain 24hr
cm
rain mn
cm
humidity
%
barometer
mb
20260505223803 10 11 0.0 0.0 0.00 0.99 0.00 100 1008.5
20260505223303 10 11 0.0 1.6 0.00 0.99 0.00 100 1008.5
20260505222305 10 11 0.0 0.0 0.00 0.99 0.00 100 1008.6
20260505221804 10 11 0.0 1.6 0.00 0.99 0.00 100 1008.5
20260505220810 11 11 0.0 0.0 0.00 0.99 0.00 100 1008.5
20260505215803 11 11 0.0 0.0 0.00 0.99 0.99 100 1008.5
20260505215305 11 11 0.0 0.0 0.00 0.99 0.99 99 1008.5
20260505213803 11 11 0.0 3.2 0.00 0.99 0.99 99 1008.6
20260505213304 11 11 0.0 1.6 0.00 0.99 0.99 99 1008.4
20260505212803 12 11 0.0 1.6 0.00 0.99 0.99 98 1008.4
20260505212305 12 11 0.0 1.6 0.00 0.99 0.99 98 1008.4
20260505211303 12 11 0.0 3.2 0.00 0.99 0.99 98 1008.4
20260505210804 12 334 0.0 1.6 0.00 0.99 0.99 98 1008.4
20260505210304 12 334 0.0 1.6 0.00 0.99 0.99 98 1008.4
20260505205803 12 334 0.0 1.6 0.00 0.99 0.99 97 1008.4
20260505205305 12 334 1.6 1.6 0.00 0.99 0.99 97 1008.4
20260505204803 12 334 0.0 3.2 0.00 0.99 0.99 97 1008.4
20260505204303 12 334 0.0 3.2 0.00 0.99 0.99 96 1008.3
20260505203803 12 329 1.6 3.2 0.00 0.99 0.99 96 1008.3
20260505203303 12 333 1.6 3.2 0.00 0.99 0.99 96 1008.3
20260505202804 12 294 3.2 4.8 0.00 0.99 0.99 95 1008.3
20260505202306 12 316 1.6 8.0 0.00 0.99 0.99 96 1008.2
20260505200804 12 80 1.6 8.0 0.00 0.99 0.99 97 1008.1
20260505200303 12 126 0.0 3.2 0.00 0.99 0.99 98 1008.0
20260505195803 12 129 0.0 1.6 0.00 0.99 0.99 98 1008.0
20260505194805 12 129 0.0 1.6 0.00 0.99 0.99 99 1008.0
20260505194304 12 129 0.0 1.6 0.00 0.99 0.99 99 1007.8
20260505193303 13 124 0.0 0.0 0.00 0.99 0.99 99 1007.7
20260505192803 13 124 0.0 0.0 0.00 0.99 0.99 99 1007.7
20260505192305 13 124 0.0 1.6 0.00 0.99 0.99 100 1007.7
20260505191803 13 124 0.0 1.6 0.00 0.99 0.99 99 1007.7
20260505191303 13 124 0.0 1.6 0.00 0.99 0.99 100 1007.7
20260505190804 13 124 0.0 1.6 0.00 0.99 0.99 99 1007.6
20260505190304 13 124 0.0 1.6 0.00 0.99 0.99 99 1007.6
20260505185804 13 124 0.0 0.0 0.00 0.99 0.99 99 1007.5
20260505184804 13 124 0.0 0.0 0.03 0.99 0.99 99 1007.5
20260505184303 13 124 0.0 0.0 0.03 0.99 0.99 98 1007.5
20260505183804 13 124 0.0 1.6 0.05 0.99 0.99 98 1007.5
20260505183304 13 124 0.0 1.6 0.05 0.99 0.99 98 1007.5
20260505182803 13 124 0.0 0.0 0.08 0.99 0.99 98 1007.5
20260505182306 13 124 0.0 1.6 0.10 0.99 0.99 98 1007.5
20260505181803 13 124 0.0 1.6 0.13 0.99 0.99 98 1007.5
20260505181303 13 124 0.0 1.6 0.15 0.99 0.99 98 1007.5
20260505180804 14 124 0.0 1.6 0.15 0.99 0.99 98 1007.4
20260505180304 14 124 0.0 1.6 0.15 0.99 0.99 98 1007.4
20260505175804 14 124 0.0 3.2 0.15 0.99 0.99 98 1007.4
20260505175305 14 124 1.6 3.2 0.15 0.99 0.99 98 1007.5
20260505174803 14 124 0.0 1.6 0.13 0.97 0.97 96 1007.5
20260505174304 14 124 0.0 0.0 0.13 0.97 0.97 96 1007.5
20260505173804 14 124 0.0 1.6 0.10 0.94 0.94 96 1007.5
20260505173303 14 124 0.0 3.2 0.08 0.91 0.91 96 1007.5
20260505172305 15 124 0.0 1.6 0.05 0.89 0.89 92 1007.2
20260505171803 15 124 1.6 3.2 0.03 0.86 0.86 92 1007.2
20260505171304 15 124 0.0 1.6 0.00 0.84 0.84 87 1007.2
20260505170803 15 124 0.0 1.6 0.00 0.84 0.84 86 1007.2
20260505170303 16 124 0.0 1.6 0.00 0.84 0.84 86 1007.2
20260505165804 16 124 0.0 1.6 0.00 0.84 0.84 86 1007.2
20260505165306 16 124 1.6 3.2 0.00 0.84 0.84 87 1007.2
20260505164803 16 106 1.6 3.2 0.00 0.84 0.84 85 1007.2
20260505164303 16 106 0.0 1.6 0.00 0.84 0.84 86 1007.2
20260505163803 16 106 0.0 1.6 0.00 0.84 0.84 87 1007.2
20260505163304 16 106 0.0 0.0 0.00 0.84 0.84 88 1007.3
20260505162804 16 106 0.0 1.6 0.00 0.84 0.84 87 1007.3
20260505162306 16 105 0.0 4.8 0.00 0.84 0.84 84 1007.3
20260505161804 17 106 0.0 4.8 0.00 0.84 0.84 83 1007.3
20260505161303 17 106 1.6 3.2 0.00 0.84 0.84 83 1007.3
20260505160803 17 106 1.6 3.2 0.00 0.84 0.84 85 1007.4
20260505160303 17 107 1.6 3.2 0.00 0.84 0.84 85 1007.5
20260505153303 17 40 0.0 4.8 0.03 0.84 0.84 84 1007.5
20260505152804 17 40 0.0 1.6 0.03 0.84 0.84 85 1007.5
20260505151803 16 40 1.6 3.2 0.03 0.84 0.84 89 1007.8
20260505151304 16 41 1.6 4.8 0.03 0.84 0.84 91 1007.8
20260505150803 15 36 1.6 8.0 0.03 0.84 0.84 90 1007.8
20260505150304 15 314 1.6 3.2 0.03 0.84 0.84 92 1007.8
20260505130304 13 298 6.4 12.9 0.71 0.71 0.71 95 1008.5
20260505124804 15 315 4.8 14.5 0.28 0.28 0.28 90 1007.7
20260505124303 17 293 4.8 19.3 0.05 0.05 0.05 80 1007.7
20260505123804 19 279 4.8 16.1 0.00 0.00 0.00 67 1007.7
20260505122803 20 43 1.6 4.8 0.00 0.00 0.00 63 1007.5
20260505122305 20 57 0.0 4.8 0.00 0.00 0.00 62 1007.5
20260505121304 20 36 1.6 4.8 0.00 0.00 0.00 64 1007.5
20260505120803 20 36 1.6 8.0 0.00 0.00 0.00 63 1007.5
20260505120311 21 18 0.0 8.0 0.00 0.00 0.00 62 1007.7
20260505115804 21 13 0.0 1.6 0.00 0.00 0.00 64 1007.7
20260505115305 21 11 0.0 3.2 0.00 0.00 0.00 62 1007.7
20260505114803 21 11 1.6 3.2 0.00 0.00 0.00 63 1007.7
20260505114304 20 11 1.6 3.2 0.00 0.00 0.00 63 1007.7
20260505113803 20 3 1.6 8.0 0.00 0.00 0.00 65 1007.7
20260505113303 20 357 3.2 8.0 0.00 0.00 0.00 64 1007.7
20260505112804 20 45 1.6 9.7 0.00 0.00 0.00 66 1007.7
20260505111804 20 329 1.6 4.8 0.00 0.00 0.00 64 1007.7
20260505111303 20 11 3.2 4.8 0.00 0.00 0.00 64 1007.7
20260505110804 20 316 3.2 8.0 0.00 0.00 0.00 64 1007.7
20260505110304 21 327 1.6 4.8 0.00 0.00 0.00 63 1007.7
20260505101803 21 273 1.6 8.0 0.00 0.00 0.00 61 1008.0
20260505101304 21 275 1.6 8.0 0.00 0.00 0.00 60 1008.0
20260505100804 21 330 3.2 8.0 0.00 0.00 0.00 59 1008.0
20260505100303 21 36 3.2 8.0 0.00 0.00 0.00 59 1008.0
20260505095804 22 15 3.2 8.0 0.00 0.00 0.00 57 1008.0
20260505095305 22 351 3.2 8.0 0.00 0.00 0.00 58 1008.1
20260505094804 22 5 1.6 8.0 0.00 0.00 0.00 56 1008.1
20260505094304 22 28 3.2 12.9 0.00 0.00 0.00 54 1008.1
20260505093804 23 51 4.8 11.3 0.00 0.00 0.00 54 1008.1
20260505093303 23 45 1.6 3.2 0.00 0.00 0.00 57 1008.4
20260505092803 23 298 3.2 8.0 0.00 0.00 0.00 58 1008.4
20260505092305 22 313 3.2 4.8 0.00 0.00 0.00 59 1008.4
20260505091804 22 162 1.6 8.0 0.00 0.00 0.00 58 1008.5
20260505090303 21 315 3.2 8.0 0.00 0.00 0.00 62 1008.6
20260505085803 21 304 4.8 8.0 0.00 0.00 0.00 62 1008.6
20260505085305 21 305 1.6 4.8 0.00 0.00 0.00 64 1008.7
20260505084304 21 329 1.6 8.0 0.00 0.00 0.00 63 1009.0
20260505083804 21 315 1.6 3.2 0.00 0.00 0.00 63 1009.0
20260505083303 21 315 1.6 3.2 0.00 0.00 0.00 62 1009.0
20260505082803 21 105 0.0 1.6 0.00 0.00 0.00 65 1009.0
20260505082305 20 105 1.6 3.2 0.00 0.00 0.00 64 1009.0
20260505081804 20 105 1.6 3.2 0.00 0.00 0.00 66 1009.0
20260505080804 20 125 1.6 3.2 0.00 0.00 0.00 67 1009.2
20260505080303 18 40 0.0 3.2 0.00 0.00 0.00 71 1009.2
20260505075804 17 40 1.6 3.2 0.00 0.00 0.00 71 1009.2
20260505075304 17 39 3.2 4.8 0.00 0.00 0.00 71 1009.2
20260505074803 18 288 0.0 3.2 0.00 0.00 0.00 70 1009.2
20260505074303 18 281 0.0 3.2 0.00 0.00 0.00 70 1009.3
20260505073803 17 281 1.6 3.2 0.00 0.00 0.00 70 1009.3
20260505073304 18 281 0.0 1.6 0.00 0.00 0.00 69 1009.3
20260505072804 17 281 0.0 3.2 0.00 0.00 0.00 73 1009.3
20260505072305 17 281 0.0 4.8 0.00 0.00 0.00 73 1009.3
20260505070803 17 168 1.6 3.2 0.00 0.00 0.00 73 1009.4
20260505070304 17 168 1.6 3.2 0.00 0.00 0.00 72 1009.5
20260505065804 17 168 0.0 1.6 0.00 0.00 0.00 74 1009.5
20260505065304 16 168 1.6 3.2 0.00 0.00 0.00 73 1009.8
20260505064804 16 168 0.0 3.2 0.00 0.00 0.00 77 1009.8
20260505064304 16 168 0.0 1.6 0.00 0.00 0.00 76 1009.8
20260505063803 16 168 0.0 1.6 0.00 0.00 0.00 77 1009.8
20260505063303 15 168 0.0 1.6 0.00 0.00 0.00 79 1009.8
20260505062803 15 168 0.0 3.2 0.00 0.00 0.00 81 1009.8
20260505062304 15 168 0.0 1.6 0.00 0.00 0.00 81 1009.8
20260505061304 14 168 0.0 1.6 0.00 0.00 0.00 83 1010.0
20260505060803 13 168 0.0 3.2 0.00 0.00 0.00 83 1010.0
20260505060304 13 168 0.0 1.6 0.00 0.00 0.00 84 1009.9
20260505055803 13 168 0.0 0.0 0.00 0.00 0.00 84 1009.9
20260505055304 13 168 0.0 0.0 0.00 0.00 0.00 85 1009.9
20260505054803 13 168 0.0 1.6 0.00 0.00 0.00 85 1010.1
20260505054304 13 168 0.0 1.6 0.00 0.00 0.00 85 1010.1
20260505053803 13 168 0.0 1.6 0.00 0.00 0.00 85 1010.1
20260505053304 13 168 0.0 1.6 0.00 0.00 0.00 86 1010.1
20260505052304 13 168 0.0 1.6 0.00 0.00 0.00 86 1010.1
20260505051804 13 169 0.0 1.6 0.00 0.00 0.00 87 1010.1
20260505051304 13 169 0.0 1.6 0.00 0.00 0.00 87 1010.1
20260505050305 12 204 1.6 3.2 0.00 0.00 0.00 87 1010.2
20260505041304 11 304 0.0 0.0 0.00 0.00 0.00 90 1010.1
20260505040304 11 304 0.0 1.6 0.00 0.00 0.00 91 1010.1
20260505035804 11 304 0.0 0.0 0.00 0.00 0.00 91 1010.1
20260505035304 11 304 0.0 1.6 0.00 0.00 0.00 92 1010.1
20260505034804 11 304 0.0 0.0 0.00 0.00 0.00 91 1010.1
20260505034303 11 304 0.0 0.0 0.00 0.00 0.00 91 1010.1
20260505033803 11 304 0.0 0.0 0.00 0.00 0.00 91 1010.1
20260505033303 11 304 0.0 0.0 0.00 0.00 0.00 91 1010.4
20260505032304 11 304 0.0 0.0 0.00 0.00 0.00 90 1010.4
20260505031804 12 304 0.0 0.0 0.00 0.00 0.00 89 1010.4
20260505030804 11 304 0.0 1.6 0.00 0.00 0.00 90 1010.5
20260505030303 11 304 0.0 0.0 0.00 0.00 0.00 90 1010.5
20260505024803 11 304 0.0 0.0 0.00 0.00 0.00 91 1010.6
20260505023804 11 304 0.0 0.0 0.00 0.00 0.00 90 1010.6
20260505022304 12 304 0.0 0.0 0.00 0.00 0.00 88 1010.8
20260505021803 12 304 0.0 1.6 0.00 0.00 0.00 87 1010.9
20260505021304 12 304 0.0 1.6 0.00 0.00 0.00 87 1010.9
20260505020804 12 304 0.0 0.0 0.00 0.00 0.00 86 1011.3
20260505020303 13 304 0.0 0.0 0.00 0.00 0.00 86 1011.3
20260505015803 13 304 0.0 1.6 0.00 0.00 0.00 85 1011.3
20260505015304 13 304 0.0 0.0 0.00 0.00 0.00 85 1011.3
20260505014803 13 304 0.0 1.6 0.00 0.00 0.00 85 1011.3
20260505014303 13 304 0.0 1.6 0.00 0.00 0.00 85 1011.3
20260505013804 13 304 0.0 1.6 0.00 0.00 0.00 85 1011.3
20260505013303 13 304 0.0 1.6 0.00 0.00 0.00 85 1011.5
20260505012304 13 304 0.0 0.0 0.00 0.00 0.00 85 1011.5
20260505011804 13 304 0.0 0.0 0.00 0.00 0.00 84 1011.5
20260505011303 13 304 0.0 0.0 0.00 0.00 0.00 83 1011.5
20260505010804 13 304 0.0 0.0 0.00 0.00 0.00 83 1011.5
20260505010303 13 304 0.0 0.0 0.00 0.00 0.00 83 1011.5
20260505005304 13 304 0.0 1.6 0.00 0.00 0.00 83 1011.6
20260505004803 13 304 0.0 1.6 0.00 0.00 0.00 83 1011.7
20260505004304 13 304 0.0 0.0 0.00 0.00 0.00 82 1011.7
20260505003803 13 304 0.0 0.0 0.00 0.00 0.00 82 1011.7
20260505003304 13 304 0.0 0.0 0.00 0.00 0.00 81 1011.7
20260505002803 14 304 0.0 1.6 0.00 0.00 0.00 81 1011.7
20260505002304 14 304 0.0 0.0 0.00 0.00 0.00 80 1011.9
20260505001803 14 304 0.0 0.0 0.00 0.00 0.00 80 1011.9
20260505001303 14 304 0.0 0.0 0.00 0.00 0.00 80 1011.9
20260505000804 14 304 0.0 0.0 0.00 0.00 0.00 80 1011.9
20260505000303 14 304 0.0 0.0 0.00 0.00 0.00 80 1011.9
20260504235803 14 304 0.0 4.8 0.00 0.00 0.00 80 1011.9
20260504235305 14 298 0.0 1.6 0.00 0.00 0.00 80 1011.9
20260504234803 13 298 0.0 1.6 0.00 0.00 0.00 81 1011.9
20260504234303 13 298 0.0 1.6 0.00 0.00 0.00 82 1011.9
20260504233804 13 298 0.0 1.6 0.00 0.00 0.00 81 1011.9
20260504232804 13 298 0.0 1.6 0.00 0.00 0.00 81 1012.0
20260504232304 13 298 0.0 0.0 0.00 0.00 0.00 81 1012.2
20260504231803 13 298 0.0 0.0 0.00 0.00 0.00 81 1012.2
20260504231305 14 298 0.0 0.0 0.00 0.00 0.00 80 1012.2
20260504230803 14 298 0.0 0.0 0.00 0.00 0.00 80 1012.2
20260504230304 14 298 0.0 0.0 0.00 0.00 0.00 79 1012.2
20260504225304 14 298 0.0 0.0 0.00 0.00 0.00 79 1012.3
20260504224804 14 298 0.0 0.0 0.00 0.00 0.00 78 1012.3
20260504224304 14 298 0.0 1.6 0.00 0.00 0.00 79 1012.3